Showing default

AETHER-12, 67383

Orbit data source: Space-Track

AETHER-12, 67383 is a payload satellite owned by Kepler Comms (CA) in SSO that was launched on Sun, 11 Jan 2026 UTC via an FALCON 9 launch vehicle from the Air Force Western Test Range (AFWTR). Payload-class satellites include a variety of spacecraft equipped with specific instruments for various scientific and technological missions. These include communications satellites like Starlink; space stations such as the ISS; scientific satellites like the Hubble; Earth observation satellites from companies like Planet Labs, Umbra, and HawkEye 360; GPS; miniature CubeSats for education and research; and military/defense satellites.

Loading next visibility...
Identifier
67383, 2026-004W
Orbit
SSO
Country
Flag of CACA
Related business
Manufacturer
Kepler Comms
Mission
Operational Commercial Communications
Bus & Motor
KEPLER GEN2B, Unknown motor
Mass
300 kg wet, 300 kg dry
Launch date (UTC)
2026-01-11 (8 months ago)
Launch vehicle
FALCON 9
Launch site
Air Force Western Test Range (AFWTR)
Object type
Payload
Rocket body
Debris
Shape & HBR
Box + 2 Pan, 7.6 m
Radar Cross Section
4.448 m², Large (>1 m²)

Expand to show TLE details & history
Last TLE update: 15 hours ago

TLE from 15 hours ago
0 AETHER-12
1 67383U 26004W   26264.23268355  .00000394  00000-0  51362-4 0  9990
2 67383  97.8077 260.9351 0000416 151.2526 208.8713 14.85843767 37547
Epoch: 2026-09-21T05:35Z
TLE epoch observation values (Epoch: 2026-09-21T05:35:03.858Z)
Latitude
0.00002°
Longitude
177.05356°
Altitude
614.226 km
Speed
7.552 km/s
True Right ascension
17h 23m 44s
True Declination
0° 00' 00"
Sunlit
Object was in daylight at epoch
Visualization orbit readout
Latitude
Unknown
Longitude
Unknown
Altitude
Unknown
Speed
Unknown
Apparent Right ascension
Unknown
Apparent Declination
Unknown
Sunlit
N/A
Visualization observer readout
Local Sidereal Time
13:30:36
Azimuth
Unknown
Elevation
Unknown
Doppler factor
Unknown
Orbital elements
Apogee altitude
608.258 km
Perigee altitude
607.677 km
Semi-major axis
6,986.105 km
Eccentricity
0.00004
Inclination
97.8077°
RAAN
260.9351°
Arg. of periapsis
151.2526°
True anomaly
208.869°
Mean anomaly
208.8713°
Eccentric anomaly
208.87015°
Mean motion
3.71698 °/min
Orbital period
96.85 mins
BSTAR
0.000051362
Loading maneuver chart data...
Computing Atmospheric mass density...
Loading historical data...
Loading historical data...
Loading historical data...
Loading historical data...
Loading historical data...
Loading historical data...
Loading historical data...

Documentation

Showing up to 5 results
|